Location: Aula-Vintri
(58.3875°N, 22.4322°E)
Time: 15:27:12
(UTC+00:00)

Cosmos 2263 Rocket - Pass Details

Date: 13 October 2019
Orbit: 825 x 847 km, 71.0° (Epoch: 20 November)

Event Time Altitude Azimuth Distance (km) Brightness Sun altitude
Rises 16:00:28 0° 200° (SSW) 3,397 5.8 -4.6°
Reaches altitude 10° 16:02:55 10° 197° (SSW) 2,463 5.0 -4.9°
Maximum altitude 16:08:29 60° 119° (ESE) 961 2.3 -5.6°
Drops below altitude 10° 16:14:02 10° 41° (NE) 2,464 4.2 -6.3°
Sets 16:16:30 0° 38° (NE) 3,399 4.9 -6.7°
